Starlink 31368

operational
NORAD ID: 58970 Int'l Des: 2024-031 Owner: SPXS Country: US Constellation: starlink
LEOCIRCULAR

关于 Starlink 31368

正在加载描述...

实时位置

正在加载3D地球...

即将过境

高度历史

Altitude vs Time

uPlot chart will show altitude changes over time

两行轨道根数

1 58970U 24031F 25351.63285501 .00005838 00000-0 20931-3 0 9997
2 58970 53.1623 317.5847 0001638 106.5872 253.5309 15.30162098103975
Epoch: Dec 17, 2025 • Age: 7 hours

当前状态

高度 479.9 km
速度 7.63 km/s
星下点 48.46°N, 39.61°W
发射日期 Feb 15, 2024
运行时间 1.8 years
类型 internet

技术详情

分类 Payload
质量 730.00 kg
干质量 700.00 kg
总质量 730.00 kg
长度 0.30 m
直径 4.10 m
跨度 29.00 m
形状 Box + pan
制造商 SPXS
平台类型 Starlink V2M
阶段状态 In Orbit
所有者/国家 SPXS/US

大型星座

Loading constellations...